Погода в Ишеевке

Россия / Ульяновская область     54°25′48″N   48°15′24″E
темп.,
°C
ветер,
м/с
пор.,
м/с
влажн.,
%
обл.,
%
осадки,
мм/ч
давл.,
гПа
погр.,
м
20 сентября, пн
пн2001:00+6всв235860 0.0 1026119
04:00+6в3465100 0.0 1026106
07:00+6вюв4670100 0.0 1026199
10:00+8в5559100 0.0 1027650
13:00+10в6651100 0.0 1026953
16:00+11в6745100 0.0 10251128
19:00+10в684899 0.0 1025483
22:00+10в71052100 0.0 1025565
21 сентября, вт
вт2101:00+9вюв61055100 0.0 1024467
04:00+8вюв5855100 0.0 1023466
07:00+8вюв6857100 0.0 1022543
10:00+8вюв6954100 0.0 1022547
13:00+11вюв61046100 0.0 1021862
16:00+11вюв71050100 0.0 1020899
19:00+10в71154100 0.1 1018649
22:00+10вюв7115562 0.1 1017465
22 сентября, ср
ср2201:00+10в81258100 0.0 1015470
04:00+10вюв71156100 0.0 1014540
07:00+8вюв5883100 2.0 1013446
10:00+10вюв5689100 2.3 1014361
13:00+11вюв4694100 0.4 1014405
16:00+11юв61091100 2.7 1015545
19:00+12юв5887100 0.3 1016405
22:00+11юв5785100 0.3 1017317
23 сентября, чт
чт2301:00+11юв4586100 0.0 1017196
04:00+9юв469234 0.0 1018157
07:00+10юв479397 0.1 1018305
10:00+11юв5886100 0.3 1019455
13:00+12юв6870100 0.0 1020531
16:00+12ююв61292100 1.4 1020630
19:00+12юв5895100 1.1 1021340
22:00+11юв8128191 1.3 1021623
24 сентября, пт
пт2401:00+10юв61085100 0.3 1021629
04:00+10юв6984100 0.3 1021486
07:00+9юв61081100 0.0 1019334
10:00+12юв71473100 0.0 1018611
13:00+11ююв51179100 1.8 1019928
16:00+10вюв51289100 9.3 1018617
19:00+11в61080100 0.2 1016347
22:00+11вюв2376100 0.4 101568